STARLINK-34223, 64336

Orbit data source: Space-Track

STARLINK-34223, 64336 is a payload satellite owned by SpaceX/Seattle (US) in LEO that was launched on Tue, 10 Jun 2025 UTC via an FALCON 9 launch vehicle from the Air Force Eastern Test Range (AFETR). Payload-class satellites include a variety of spacecraft equipped with specific instruments for various scientific and technological missions. These include communications satellites like Starlink; space stations such as the ISS; scientific satellites like the Hubble; Earth observation satellites from companies like Planet Labs, Umbra, and HawkEye 360; GPS; miniature CubeSats for education and research; and military/defense satellites.

Loading next visibility...
Identifier
64336, 2025-124V
Orbit
LEO
Country
Flag of USUS
Related business
Manufacturer
SpaceX/Seattle
Mission
Operational Commercial Communications
Bus & Motor
STARLINK V2MO, Unknown motor
Mass
575 kg wet, ~530 kg dry
Launch date (UTC)
2025-06-10 (9 months ago)
Launch vehicle
FALCON 9
Launch site
Air Force Eastern Test Range (AFETR)
Object type
Payload
Rocket body
Debris
Shape & HBR
Box + 2 Pan, 17.7 m
Radar Cross Section
36.964 m², Large (>1 m²)

Expand to show TLE details & history
Last TLE update: 15 hours ago

TLE from 15 hours ago
0 STARLINK-34223
1 64336U 25124V   26074.31041736  .00025905  00000-0  94694-3 0  9996
2 64336  42.9961  86.1864 0000661 250.5565 109.5216 15.27602076 42689
Epoch: 2026-03-15T07:27Z
TLE epoch observation values (Epoch: 2026-03-15T07:27:00.059Z)
Latitude
0.00002°
Longitude
161.51709°
Altitude
482.91 km
Speed
7.626 km/s
True Right ascension
05h 44m 44s
True Declination
0° 00' 00"
Sunlit
Object was in daylight at epoch
Visualization orbit readout
Latitude
Unknown
Longitude
Unknown
Altitude
Unknown
Speed
Unknown
Apparent Right ascension
Unknown
Apparent Declination
Unknown
Sunlit
N/A
Visualization observer readout
Local Sidereal Time
02:49:53
Azimuth
Unknown
Elevation
Unknown
Doppler factor
Unknown
Orbital elements
Apogee altitude
485.382 km
Perigee altitude
484.475 km
Semi-major axis
6,863.066 km
Eccentricity
0.00007
Inclination
42.9961°
RAAN
86.1864°
Arg. of periapsis
250.5565°
True anomaly
109.52874°
Mean anomaly
109.5216°
Eccentric anomaly
109.52517°
Mean motion
3.81738 °/min
Orbital period
94.31 mins
BSTAR
0.00094694
Loading maneuver chart data...
Computing Atmospheric mass density...
Loading historical data...
Loading historical data...
Loading historical data...
Loading historical data...
Loading historical data...
Loading historical data...
Loading historical data...

Documentation

Showing up to 5 results
|